Regional Weather Roundup
Issued by NWS

Home | Current Version | Previous Version | Graphics & Text | Print | Product List | Glossary On
Versions: 1 2 3 4 5 6 7 8 9 10 11 12 13 14 15 16 17 18 19 20 21 22 23 24 25 26 27 28 29 30 31 32 33 34 35 36 37 38 39 40 41 42 43 44 45 46 47 48 49 50
000
ASUS45 KTFX 072010
RWRMT
MONTANA REGIONAL WEATHER ROUNDUP
NATIONAL WEATHER SERVICE GREAT FALLS MT
100 PM MST WED DEC 07 2016

NOTE: "FAIR" INDICATES FEW OR NO CLOUDS BELOW 12000 FEET WITH NO
SIGNIFICANT WEATHER AND/OR OBSTRUCTIONS TO VISIBILITY.

MTZ001>007-043-072100-
WEST OF THE DIVIDE

CITY           SKY/WX    TMP DP  RH WIND       PRES   REMARKS
KALISPELL      MOSUNNY   12   0  58 N9        30.46S WCI   0
MISSOULA       CLOUDY    15   2  56 E14       30.43S WCI   0
BUTTE          CLOUDY     6  -3  66 NE3       30.23F
MULLAN PASS    LGT SNOW   6   4  91 VRB3      30.15S FOG
ANACONDA         N/A      7  -6  56 CALM      30.28F
DEER LODGE       N/A      9  -4  56 CALM      30.35R
EUREKA           N/A      7   1  78 CALM      30.52F VSB 1/4
HAMILTON         N/A     16   3  57 CALM      30.36F
LIBBY            N/A     16   3  57 CALM      30.47S
PLAINS           N/A     18   4  54 CALM      30.44S
$$

MTZ008-052>055-072100-
SOUTHWEST MONTANA

CITY           SKY/WX    TMP DP  RH WIND       PRES   REMARKS
BOZEMAN        CLOUDY     7  -2  66 CALM      30.37R
DILLON         SUNNY      9  -1  64 NE6       30.25S WCI  -1
W YELLOWSTONE  SUNNY      1  -8  66 NE3       30.16S
ENNIS          SUNNY      5  -4  66 CALM      30.30F
THREE FORKS      N/A      8 -80   1 CALM      30.33S
TWIN BRIDGES     N/A     11  -4  50 NW8       30.24R WCI  -1
$$

MTZ009-010-012-014-046-048-049-054-072100-
EAST SLOPES AND CENTRAL MONTANA

CITY           SKY/WX    TMP DP  RH WIND       PRES   REMARKS
CUT BANK       SUNNY     -1  -9  68 NW9       30.46R WCI -16
GREAT FALLS    LGT SNOW   1  -7  68 W8        30.48S WCI -13
MALMSTROM AFB  FLURRIES   1  -4  78 W7G14     30.51S WCI -11
HELENA         CLOUDY     4  -6  63 CALM      30.43F
AUGUSTA        PTSUNNY   -2  -8  76 E1        30.39S
BOWMANS CRNR   CLOUDY    -3  -9  75 E1        30.38F
CHOTEAU          N/A      3  -8  60 MISG      30.46F
CONRAD           N/A      1  -6  72 W7        30.45S WCI -12
FAIRFIELD      PTSUNNY    0  -7  70 W6        30.45S WCI -11
POWER          CLOUDY     0  -7  71 NW10      30.46S WCI -16
RAYNESFORD       N/A     -2 -10  70 W7        30.44S WCI -16
ULM            PTSUNNY    0  -8  70 NW5       30.49S
$$

MTZ011-013-016-021-045-047-050-051-072100-
NORTH CENTRAL MONTANA

CITY           SKY/WX    TMP DP  RH WIND       PRES   REMARKS
HAVRE          PTSUNNY    4  -5  66 NW14      30.57S WCI -14
LEWISTOWN      SUNNY      0  -7  72 W10       30.40S WCI -16
N BAR RANCH      N/A      3  -9  55 NW12      30.35S WCI -13
CHINOOK          N/A      3  -6  66 W14       30.58S WCI -15
DENTON           N/A      1  -5  73 NW10G20   30.43S WCI -14
GEYSER           N/A      0  -8  68 W17G24    30.40S WCI -20
GRASS RANGE    PTSUNNY    3  -5  69 W20       30.38S WCI -18
JUDITH GAP       N/A     -3  -8  82 N21G26    30.32S WCI -27
ROY            PTSUNNY    3  -5  69 MISG      30.42S
STANFORD         N/A     -2  -8  75 NW10      30.37F WCI -19
WINIFRED         N/A      1  -5  75 MISG      30.44S
$$

MTZ017>020-022>027-061-062-072100-
NORTHEAST MONTANA

CITY           SKY/WX    TMP DP  RH WIND       PRES   REMARKS
GLASGOW        PTSUNNY    4  -7  60 W29       30.49S WCI -20
JORDAN           N/A      7  -4  60 NW25G32   30.49R WCI -15
SIDNEY         SUNNY      2  -7  66 NW28G35   30.44  WCI -22
WOLF POINT     SUNNY      5  -6  60 NW22      30.51S WCI -16
PLENTYWOOD       N/A     -2  -8  78 NW25G31   30.38R WCI -27
POPLAR           N/A      1  -8  66 W22       30.48S WCI -21
SCOBEY           N/A      0 -13  54 W15       30.38R WCI -19
$$

MTZ028>42-056>058-072100-
SOUTHCENTRAL AND SOUTHEAST MONTANA

CITY           SKY/WX    TMP DP  RH WIND       PRES   REMARKS
BAKER          PTSUNNY    2  -6  69 W26       30.38S WCI -22
BILLINGS       MOSUNNY   11  -3  53 NW5       30.41S
LIVINGSTON     SUNNY      8  -4  58 NW12      30.31S WCI  -7
MILES CITY     PTSUNNY    9  -5  53 NW20      30.48S WCI -10
BIG TIMBER     SUNNY      9  -2  61 CALM      30.35S
EKALAKA          N/A      1  -8  66 W23       30.27R WCI -22
FORSYTH          N/A      9  -4  56 W14       30.48F WCI  -8
HARLOWTON      PTSUNNY    3  -7  63 NE13      30.34F WCI -14
LAUREL           N/A     11  -6  46 S1        30.35F
$$

REGIONAL REPORTS...DAKOTAS

CITY           SKY/WX    TMP DP  RH WIND       PRES   REMARKS
WILLISTON      CLOUDY     1  -7  68 NW17      30.43S WCI -19
MINOT          LGT SNOW   7   2  80 W33G45    30.23R VSB 3/4 WCI -17
DICKINSON      MIX PCPN   0  -7  72 NW29G44   30.30R VSB 1   WCI -26
BEACH          LGT RAIN   1  -2  85 NW25G32   30.40R WCI -22
CROSBY         LGT SNOW   1  -2  85 NW30G36   30.38S WCI -24
TIOGA          CLOUDY     0  -2  92 NW32G38   30.32S FOG     WCI -27
WATFORD CITY   PTSUNNY    0  -8  71 NW23      30.39F WCI -24
BISMARCK       CLOUDY     5  -2  72 NW21G36   30.29R WCI -16
GRAND FORKS    LGT SNOW  19  14  81 NW24G30   29.99R BLWGSNOWWCI   2
FARGO          LGT SNOW  16   9  74 W25G31    30.05S WCI  -3
BUFFALO SD       N/A      7  -4  60 NW30      30.26R WCI -16
RAPID CITY     SUNNY     14  -4  44 NW23G32   30.32F WCI  -5
$$

REGIONAL REPORTS...WYOMING/IDAHO/WASHINGTON

CITY           SKY/WX    TMP DP  RH WIND       PRES   REMARKS
GILLETTE       CLOUDY     2  -4  76 NW10      30.32S WCI -14
SHERIDAN       SUNNY      6  -5  60 W7        30.37S WCI  -6
BUFFALO WY     PTSUNNY    4  -6  63 NW3       30.28S
CODY           SUNNY      7  -3  64 S3        30.29S
YELLOWSTONE LA   N/A      6  -2  69 VRB3      30.05F
IDAHO FALLS    MOSUNNY   19   3  49 VRB5      30.28F
SALMON         CLOUDY    18  10  73 CALM      30.29F
BOISE          SUNNY     22  16  78 SE10      30.37F WCI  11
SPOKANE        PTSUNNY   25  12  58 E7        30.39F WCI  17
$$

REGIONAL REPORTS...ALBERTA

CITY           SKY/WX    TMP DP  RH WIND       PRES   REMARKS
EDMONTON       MOSUNNY   -4 -15  59 NW9       30.63F WCI -20
CALGARY        MOSUNNY   -2 -13  60 N9G17     30.48S WCI -18
LETHBRIDGE     SUNNY     -2  -9  71 NW10      30.56S WCI -19
MEDICINE HAT   MOSUNNY    0  -9  65 W10       30.60S WCI -17
WATERTON GATE    N/A      0 -11  60 E7          N/A  WCI -13
MILK RIVER       N/A      0  -8  71 NW13        N/A  WCI -18
$$

REGIONAL REPORTS...SASKATCHEWAN

CITY           SKY/WX    TMP DP  RH WIND       PRES   REMARKS
SWIFT CURRENT  MOSUNNY   -6  -9  84 NW18G26   30.44R WCI -29
REGINA         CLOUDY     3  -4  72 NW21      30.40R WCI -18
SASKATOON      PTSUNNY    5  -4  66 NW14      30.50S WCI -12
CYPRESS HILLS    N/A    -11 -17  77 NW8G17      N/A  WCI -28
VAL MARIE        N/A     -2 -11  65 NW16        N/A  WCI -23
ROCKGLEN         N/A     -4  -9  77 NW17G25     N/A  WCI -26
ASSINIBOIA       N/A     -2 -11  65 NW14        N/A  WCI -21
$$



USA.gov is the U.S. government's official web portal to all federal, state and local government web resources and services.